This is the latest recevied weather packets stored in our database for station/object DC1SK-6. If no packets are shown the sender has not sent any weather packets the latest 10 day(s).
| Time | Temp. | Humidity | Pressure | Rain* | Wind** | Luminosity | Snow |
|---|---|---|---|---|---|---|---|
| 1777572564 | 13.33° C | 54% | - | 0 mm | - | 10 W/m² | - |
| 1777571974 | 13.89° C | 52% | - | 0 mm | - | 13 W/m² | - |
| 1777571434 | 14.44° C | 50% | - | 0 mm | - | 17 W/m² | - |
| 1777570899 | 14.44° C | 49% | - | 0 mm | - | 21 W/m² | - |
| 1777570369 | 15° C | 47% | - | 0 mm | - | 24 W/m² | - |
| 1777569839 | 15° C | 46% | - | 0 mm | - | 27 W/m² | - |
| 1777569354 | 15° C | 47% | - | 0 mm | - | 29 W/m² | - |
| 1777568789 | 15.56° C | 45% | - | 0 mm | - | 32 W/m² | - |
| 1777568234 | 15.56° C | 45% | - | 0 mm | - | 34 W/m² | - |
| 1777567669 | 15.56° C | 45% | - | 0 mm | - | 37 W/m² | - |
| 1777567124 | 15.56° C | 45% | - | 0 mm | - | 39 W/m² | - |
| 1777566569 | 16.11° C | 45% | - | 0 mm | - | 47 W/m² | - |
| 1777566064 | 16.11° C | 43% | - | 0 mm | - | 131 W/m² | - |
| 1777565534 | 16.11° C | 43% | - | 0 mm | - | 163 W/m² | - |
| 1777564999 | 16.11° C | 44% | - | 0 mm | - | 177 W/m² | - |
| 1777564454 | 16.67° C | 42% | - | 0 mm | - | 197 W/m² | - |
| 1777563974 | 16.67° C | 42% | - | 0 mm | - | 232 W/m² | - |
| 1777563384 | 16.67° C | 41% | - | 0 mm | - | 215 W/m² | - |
| 1777562849 | 16.67° C | 41% | - | 0 mm | - | 240 W/m² | - |
| 1777562307 | 16.67° C | 42% | - | 0 mm | - | 280 W/m² | - |
| 1777561729 | 17.22° C | 40% | - | 0 mm | - | 332 W/m² | - |
| 1777561159 | 17.22° C | 40% | - | 0 mm | - | 370 W/m² | - |
| 1777560594 | 17.22° C | 40% | - | 0 mm | - | 364 W/m² | - |
| 1777560029 | 16.67° C | 41% | - | 0 mm | - | 399 W/m² | - |
| 1777559439 | 17.22° C | 40% | - | 0 mm | - | 389 W/m² | - |
* Rain latest hour (hover to see other rain measurements)
** Current wind speed in m/s (hover to see current wind gust speed)